Delta Virtual Airport Information Service

Munich Airport

ICAO: EDDM Country: Germany
Latitude: 48.3538 Longitude: 11.7861
Latest Arrival : DLH415 (KIAD-EDDM) Latest Departure : DLH414 (EDDM-KIAD)


WX CaptureLIVE
Data provided by noaa.gov | Fetched at 03:02:07

METAR : EDDM 300750Z AUTO 08004KT 040V110 9000 FEW009 OVC016 02/01 Q1020 NOSIG

TAF : EDDM 300750Z AUTO 08004KT 040V110 9000 FEW009 OVC016 02/01 Q1020 NOSIG


Runway Data for EDDM
Data provided by openaviationdata.com

Runway ID Mag Var Hdg Length Elevation Surface ILS Freq ILS Id ILS Slope
08L 1 82° 13097 ft 1486 ft Concrete 109.5 IMNE 3
08R 1 82° 13097 ft 1486 ft Concrete 109.3 IMSE 3
26L 1 262° 13097 ft 1486 ft Concrete 108.3 IMSW 3
26R 1 262° 13097 ft 1486 ft Concrete 108.7 IMNW 3

Munich Airport, Germany
Use only for reference purposes



Not for navigational purposes.